Terminal Aerodrome Forecast
Issued by NWS Jackson, KY

Home | Current Version | Previous Version | Text Only | Print | Product List | Glossary On
Versions: 1 2 3 4 5 6 7 8 9 10 11 12 13 14 15 16 17 18 19 20 21 22
000
FTUS43 KJKL 260500
TAFJKL
TAF
KJKL 260520Z 2606/2706 00000KT P6SM BKN150
     FM260800 VRB03KT 3SM -RASN BR OVC025
     FM261000 VRB03KT 1SM -SN BR SCT008 OVC015
     FM261300 VRB04KT P6SM SCT020 BKN035=

USA.gov is the U.S. government's official web portal to all federal, state and local government web resources and services.